This demonstration page uses our WeatherBlox Daily Observations layout. Learn more.

39.92423, -83.80882

Hourly Observations for May 2, 2016

Temp ( °F °C ) Dew Point ( °F °C ) Humidity (%) Winds ( mph kmh ) Pressure ( in mb ) Visibility ( mi km ) Precip ( " mm )
12:56 am 00:56 Mostly Cloudy 59 15 59 15 100 100 NE 3 6 29.87 1012 9 14.48406 0 0.0254
1:08 am 01:08 Mostly Cloudy with Mist and Fog 61 16 61 16 100 100 NNW 10 17 29.91 1013 1.75 2.816345 0.08 2.032
1:12 am 01:12 Mostly Cloudy with Nearby Thunderstorms 61 16 61 16 100 100 NW 12 19 29.91 1013 1.25 2.011675 0.13 3.302
1:20 am 01:20 Cloudy with Thunderstorms 61 16 61 16 100 100 NNW 13 20 29.91 1013 1.5 2.41401 0.15 3.81
1:32 am 01:32 Cloudy with Light Thunderstorms 59 15 59 15 100 100 WNW 12 19 29.91 1013 3 4.82802 0.18 4.572
1:45 am 01:45 Mostly Cloudy with Light Rain 61 16 61 16 100 100 W 5 7 29.88 1012 10 16.0934 0.18 4.572
1:56 am 01:56 Mostly Cloudy 60 15.5 60 15.5 100 100 WSW 6 9 29.87 1012 10 16.0934 0.18 4.572
2:56 am 02:56 Cloudy 60 15.5 60 15.5 100 100 WSW 5 7 29.88 1012 10 16.0934 0 0
3:56 am 03:56 Mostly Clear 58 14.4 58 14.4 100 100 WSW 3 6 29.87 1012 10 16.0934 0.02 0.508
4:16 am 04:16 Mostly Cloudy 57 14 57 14 100 100 SW 5 7 29.91 1013 10 16.0934 0 0
4:56 am 04:56 Cloudy 58 14.4 58 14.4 100 100 WNW 5 7 29.89 1012 10 16.0934 0 0
5:09 am 05:09 Cloudy 57 14 57 14 100 100 W 5 7 29.91 1013 10 16.0934 0 0
5:56 am 05:56 Cloudy 56 13.3 56 13.3 100 100 N 6 9 29.89 1012 10 16.0934 0 0
6:05 am 06:05 Cloudy 55 13 55 13 100 100 N 6 9 29.91 1013 8 12.87472 0 0
6:24 am 06:24 Cloudy with Mist and Fog 55 13 55 13 100 100 NW 5 7 29.94 1014 5 8.0467 0 0
6:56 am 06:56 Cloudy with Mist and Fog 55 12.7 55 12.7 100 100 Calm 29.91 1013 1 1.60934 0 0
7:04 am 07:04 Cloudy with Mist and Fog 55 13 55 13 100 100 NE 3 6 29.91 1013 0.75 1.207005 0 0
7:15 am 07:15 Cloudy with Fog 55 13 55 13 100 100 Calm 29.94 1014 0.5 0.80467 0 0
7:28 am 07:28 Cloudy with Fog 55 13 55 13 100 100 Calm 29.94 1014 0.25 0.402335 0 0
7:56 am 07:56 Cloudy with Fog 55 12.7 55 12.7 100 100 W 10 17 29.95 1014 0.25 0.402335 0 0
8:22 am 08:22 Cloudy with Mist and Fog 54 12 54 12 100 100 W 13 20 29.97 1015 0.75 1.207005 0 0
8:26 am 08:26 Cloudy with Mist and Fog 54 12 54 12 100 100 W 13 20 29.97 1015 1.25 2.011675 0 0
8:32 am 08:32 Cloudy with Mist and Fog 54 12 54 12 100 100 W 10 17 29.97 1015 2 3.21868 0 0
8:43 am 08:43 Cloudy with Mist and Fog 54 12 54 12 100 100 WNW 9 15 29.97 1015 3 4.82802 0 0
8:56 am 08:56 Cloudy 54 12.2 54 12.2 100 100 WNW 12 19 29.96 1015 10 16.0934 0 0
9:39 am 09:39 Cloudy 55 13 55 13 100 100 WNW 7 11 30 1016 7 11.26538 0 0
9:56 am 09:56 Cloudy with Mist and Fog 55 12.7 55 12.7 100 100 NW 9 15 29.98 1015 6 9.65604 0 0
10:11 am 10:11 Cloudy 55 13 55 13 100 100 WNW 7 11 30 1016 7 11.26538 0 0
10:56 am 10:56 Cloudy 55 12.7 55 12.7 100 100 NNW 6 9 29.98 1015 10 16.0934 0 0
11:04 am 11:04 Cloudy 55 13 55 13 100 100 N 8 13 30 1016 10 16.0934 0 0
11:42 am 11:42 Cloudy 57 14 55 13 94 94 N 6 9 30 1016 10 16.0934 0 0
11:56 am 11:56 Cloudy 58 14.4 54 12.2 87 87 NW 7 11 29.97 1015 10 16.0934 0 0
12:56 pm 12:56 Cloudy 60 15.5 54 12.2 81 81 W 6 9 29.97 1015 10 16.0934 0 0
1:41 pm 13:41 Cloudy 59 15 54 12 82 82 W 5 7 30 1016 10 16.0934 0 0
1:56 pm 13:56 Mostly Cloudy 60 15.5 55 12.7 84 84 NW 8 13 29.96 1015 10 16.0934 0 0
2:35 pm 14:35 Cloudy 61 16 55 13 83 83 WNW 8 13 29.97 1015 10 16.0934 0 0
2:56 pm 14:56 Cloudy 60 15.5 54 12.2 81 81 NNW 7 11 29.98 1015 10 16.0934 0 0
3:17 pm 15:17 Cloudy 61 16 55 13 83 83 NW 9 15 29.97 1015 10 16.0934 0 0
3:56 pm 15:56 Mostly Cloudy 60 15.5 53 11.6 78 78 N 8 13 29.95 1014 10 16.0934 0 0
4:16 pm 16:16 Cloudy 61 16 54 12 77 77 N 9 15 29.94 1014 10 16.0934 0 0
4:56 pm 16:56 Partly Cloudy 60 15.5 54 12.2 81 81 N 12 19 29.94 1014 10 16.0934 0 0
5:04 pm 17:04 Mostly Cloudy 59 15 55 13 88 88 N 13 20 29.94 1014 10 16.0934 0 0
5:56 pm 17:56 Cloudy 58 14.4 54 12.2 87 87 N 8 13 29.95 1014 10 16.0934 0 0
6:56 pm 18:56 Cloudy 56 13.3 53 11.6 90 90 NNE 12 19 29.95 1014 10 16.0934 0 0
7:56 pm 19:56 Mostly Cloudy 54 12.2 51 10.5 89 89 NNE 9 15 29.96 1015 10 16.0934 0 0
8:56 pm 20:56 Cloudy 53 11.6 51 10.5 93 93 NNE 8 13 29.96 1015 10 16.0934 0 0
9:34 pm 21:34 Cloudy 54 12 52 11 94 94 NNE 9 15 29.94 1014 10 16.0934 0 0
9:56 pm 21:56 Cloudy 52 11.1 50 10 93 93 NE 7 11 29.96 1015 10 16.0934 0 0
10:40 pm 22:40 Cloudy 52 11 50 10 94 94 NE 8 13 29.97 1015 10 16.0934 0 0
10:56 pm 22:56 Cloudy 52 11.1 50 10 93 93 NE 7 11 29.97 1015 10 16.0934 0 0
11:56 pm 23:56 Cloudy 51 10.5 49 9.4 93 93 NNE 8 13 29.96 1015 10 16.0934 0 0

Powered by AerisWeather